,,Stat6,,Stat2,,Stat8,,Stat9,,Stat10,,Wind1,,Wind1,
time,status,PA1M_AVG,status,PR1M_SUM,status,RH1M_AVG,status,SR1M_AVG,status,TA1M_AVG,status,W1dAve1m,status,W1sAve1m,
2005-06-09, 00:00:01,VALID,916.008,VALID,0,VALID,99.957,VALID,-0.0509425,VALID,20.2276,VALID,116,VALID,0.724085,
2005-06-09, 00:01:01,VALID,916.002,VALID,0,VALID,99.8337,VALID,-0.0509425,VALID,20.2368,VALID,110,VALID,0.411272,
2005-06-09, 00:02:01,VALID,916.011,VALID,0,VALID,99.7332,VALID,-0.0169808,VALID,20.2467,VALID,110,VALID,0.351749,
2005-06-09, 00:03:01,VALID,916.016,VALID,0,VALID,99.6646,VALID,-0.0169808,VALID,20.2465,VALID,110,VALID,0.423611,
2005-06-09, 00:04:01,VALID,916.028,VALID,0,VALID,99.5387,VALID,-0.0169808,VALID,20.2397,VALID,110,VALID,0.360647,
2005-06-09, 00:05:01,VALID,916.039,VALID,0,VALID,99.4713,VALID,0,VALID,20.2467,VALID,110,VALID,0.309961,
2005-06-09, 00:06:01,VALID,916.05,VALID,0,VALID,99.4242,VALID,-0.0169808,VALID,20.2427,VALID,110,VALID,0,
2005-06-09, 00:07:01,VALID,916.055,VALID,0,VALID,99.414,VALID,-0.0339617,VALID,20.2594,VALID,110,VALID,0.0966082,
2005-06-09, 00:08:01,VALID,916.074,VALID,0,VALID,99.381,VALID,-0.0679233,VALID,20.2661,VALID,110,VALID,0.465345,
2005-06-09, 00:09:01,VALID,916.074,VALID,0,VALID,99.1775,VALID,-0.0679233,VALID,20.2626,VALID,89,VALID,0.715843,
2005-06-09, 00:10:01,VALID,916.096,VALID,0,VALID,98.9436,VALID,-0.0339617,VALID,20.2653,VALID,86,VALID,0.645089,
2005-06-09, 00:11:01,VALID,916.117,VALID,0,VALID,98.735,VALID,0,VALID,20.2529,VALID,85,VALID,0.422266,
2005-06-09, 00:12:01,VALID,916.122,VALID,0,VALID,98.6803,VALID,-0.0169808,VALID,20.2497,VALID,80,VALID,0.634115,
2005-06-09, 00:13:01,VALID,916.135,VALID,0,VALID,98.6473,VALID,0.0169808,VALID,20.2397,VALID,102,VALID,0.544922,
2005-06-09, 00:14:01,VALID,916.141,VALID,0,VALID,98.5951,VALID,-0.0509425,VALID,20.2368,VALID,102,VALID,0.222752,
2005-06-09, 00:15:01,VALID,916.146,VALID,0,VALID,98.5303,VALID,0,VALID,20.2363,VALID,102,VALID,0.0847222,
2005-06-09, 00:16:01,VALID,916.131,VALID,0,VALID,98.5519,VALID,-0.0169808,VALID,20.24,VALID,105,VALID,0.34048,
2005-06-09, 00:17:00,VALID,916.132,VALID,0,VALID,98.5303,VALID,0,VALID,20.2465,VALID,170,VALID,0.398624,
2005-06-09, 00:18:00,VALID,916.125,VALID,0,VALID,98.6574,VALID,-0.0339617,VALID,20.2462,VALID,261,VALID,0.463299,
2005-06-09, 00:19:00,VALID,916.114,VALID,0,VALID,99.0326,VALID,-0.0169808,VALID,20.2663,VALID,272,VALID,0.727805,
2005-06-09, 00:20:00,VALID,916.114,VALID,0,VALID,99.2106,VALID,-0.0509425,VALID,20.2726,VALID,277,VALID,0.276708,
2005-06-09, 00:21:00,VALID,916.111,VALID,0,VALID,99.3327,VALID,0,VALID,20.2688,VALID,277,VALID,0.269345,
2005-06-09, 00:22:00,VALID,916.11,VALID,0,VALID,99.4344,VALID,0.0169808,VALID,20.2656,VALID,277,VALID,0.00130208,
2005-06-09, 00:23:00,VALID,916.118,VALID,0,VALID,99.4179,VALID,0,VALID,20.2591,VALID,277,VALID,0.00285823,
2005-06-09, 00:24:00,VALID,916.111,VALID,0,VALID,99.3339,VALID,-0.0679233,VALID,20.243,VALID,277,VALID,0.0175305,
2005-06-09, 00:25:00,VALID,916.111,VALID,0,VALID,99.3288,VALID,-0.0509425,VALID,20.2211,VALID,244,VALID,0.282885,
2005-06-09, 00:26:00,VALID,916.114,VALID,0,VALID,99.3581,VALID,-0.0339617,VALID,20.208,VALID,163,VALID,0.366443,
2005-06-09, 00:27:00,VALID,916.119,VALID,0,VALID,99.4013,VALID,-0.0339617,VALID,20.1883,VALID,163,VALID,0.34184,
2005-06-09, 00:28:00,VALID,916.134,VALID,0,VALID,99.367,VALID,-0.0509425,VALID,20.1856,VALID,163,VALID,0.157227,
2005-06-09, 00:29:00,VALID,916.122,VALID,0,VALID,99.2932,VALID,-0.0339617,VALID,20.156,VALID,162,VALID,0.267882,
2005-06-09, 00:30:00,VALID,916.104,VALID,0,VALID,99.1279,VALID,-0.0339617,VALID,20.1267,VALID,110,VALID,0.586868,
2005-06-09, 00:31:00,VALID,916.085,VALID,0,VALID,98.9919,VALID,-0.0339617,VALID,20.1011,VALID,105,VALID,0.744673,
2005-06-09, 00:32:00,VALID,916.09,VALID,0,VALID,99.0008,VALID,0,VALID,20.0686,VALID,97,VALID,0.82279,
2005-06-09, 00:33:00,VALID,916.096,VALID,0,VALID,99.1635,VALID,-0.0509425,VALID,20.0624,VALID,97,VALID,0.840021,
2005-06-09, 00:34:00,VALID,916.098,VALID,0,VALID,99.1508,VALID,-0.0169808,VALID,20.053,VALID,104,VALID,0.879084,
2005-06-09, 00:35:00,VALID,916.106,VALID,0,VALID,99.1305,VALID,-0.0169808,VALID,20.043,VALID,104,VALID,1.10087,
2005-06-09, 00:36:00,VALID,916.108,VALID,0,VALID,99.1534,VALID,-0.0509425,VALID,20.0398,VALID,104,VALID,1.17188,
2005-06-09, 00:37:00,VALID,916.126,VALID,0,VALID,99.1432,VALID,-0.0339617,VALID,20.0162,VALID,113,VALID,1.09066,
2005-06-09, 00:38:00,VALID,916.133,VALID,0,VALID,99.1813,VALID,0,VALID,20.0358,VALID,105,VALID,1.08957,
2005-06-09, 00:39:00,VALID,916.133,VALID,0,VALID,99.2195,VALID,0.0339617,VALID,20.0355,VALID,101,VALID,1.28849,
2005-06-09, 00:40:00,VALID,916.144,VALID,0,VALID,99.3072,VALID,0,VALID,20.0321,VALID,92,VALID,1.25036,
2005-06-09, 00:41:00,VALID,916.14,VALID,0,VALID,99.3365,VALID,0.0509425,VALID,20.0485,VALID,98,VALID,1.19844,
2005-06-09, 00:42:00,VALID,916.134,VALID,0,VALID,99.4166,VALID,0,VALID,20.0154,VALID,100,VALID,1.16648,
2005-06-09, 00:43:00,VALID,916.139,VALID,0,VALID,99.395,VALID,0,VALID,20.0259,VALID,95,VALID,0.826758,
2005-06-09, 00:44:00,VALID,916.141,VALID,0,VALID,99.3988,VALID,0.0169808,VALID,20.0038,VALID,100,VALID,1.05174,
2005-06-09, 00:45:00,VALID,916.124,VALID,0,VALID,99.3797,VALID,0,VALID,19.9941,VALID,98,VALID,0.664426,
2005-06-09, 00:46:00,VALID,916.117,VALID,0,VALID,99.3708,VALID,0,VALID,19.9807,VALID,97,VALID,0.660056,
2005-06-09, 00:47:00,VALID,916.113,VALID,0,VALID,99.512,VALID,0.0169808,VALID,19.9449,VALID,96,VALID,0.627232,
2005-06-09, 00:48:00,VALID,916.103,VALID,0,VALID,99.62,VALID,0.0169808,VALID,19.9521,VALID,95,VALID,0.625762,
2005-06-09, 00:49:00,VALID,916.099,VALID,0,VALID,99.7587,VALID,0.0509425,VALID,19.9287,VALID,93,VALID,0.791109,
2005-06-09, 00:50:00,VALID,916.098,VALID,0,VALID,99.9451,VALID,0,VALID,19.9223,VALID,113,VALID,1.07122,
2005-06-09, 00:51:00,VALID,916.096,VALID,0,VALID,100,VALID,0.0169808,VALID,19.9327,VALID,116,VALID,0.98952,
2005-06-09, 00:52:00,VALID,916.109,VALID,0,VALID,100,VALID,0.0169808,VALID,19.9223,VALID,128,VALID,0.445486,
2005-06-09, 00:53:00,VALID,916.099,VALID,0,VALID,100,VALID,0,VALID,19.9191,VALID,114,VALID,0.924716,
2005-06-09, 00:54:00,VALID,916.093,VALID,0,VALID,100,VALID,0.0169808,VALID,19.9258,VALID,107,VALID,0.990885,
2005-06-09, 00:55:00,VALID,916.096,VALID,0,VALID,100,VALID,0.0169808,VALID,19.9061,VALID,105,VALID,0.747514,
2005-06-09, 00:56:00,VALID,916.088,VALID,0,VALID,100,VALID,0.0169808,VALID,19.9034,VALID,101,VALID,1.02198,
2005-06-09, 00:57:00,VALID,916.091,VALID,0,VALID,100,VALID,0.0339617,VALID,19.9004,VALID,126,VALID,0.766369,
2005-06-09, 00:58:00,VALID,916.095,VALID,0,VALID,100,VALID,0.0849042,VALID,19.8773,VALID,137,VALID,0.818638,
2005-06-09, 00:59:00,VALID,916.084,VALID,0,VALID,100,VALID,0.0509425,VALID,19.8676,VALID,113,VALID,0.945131,
2005-06-09, 01:00:00,VALID,916.086,VALID,0,VALID,100,VALID,0.0339617,VALID,19.8483,VALID,116,VALID,1.08213,
2005-06-09, 01:01:00,VALID,916.075,VALID,0,VALID,100,VALID,0,VALID,19.8291,VALID,127,VALID,1.37973,
2005-06-09, 01:02:00,VALID,916.076,VALID,0,VALID,100,VALID,0.0169808,VALID,19.8356,VALID,122,VALID,1.33648,
2005-06-09, 01:03:00,VALID,916.075,VALID,0,VALID,100,VALID,0.0509425,VALID,19.8321,VALID,123,VALID,1.15288,
2005-06-09, 01:04:00,VALID,916.079,VALID,0,VALID,100,VALID,0.0339617,VALID,19.7998,VALID,138,VALID,1.06133,
2005-06-09, 01:05:00,VALID,916.069,VALID,0,VALID,100,VALID,0.0169808,VALID,19.7775,VALID,121,VALID,0.704901,
2005-06-09, 01:06:00,VALID,916.061,VALID,0,VALID,100,VALID,0.0679233,VALID,19.7678,VALID,132,VALID,1.35828,
2005-06-09, 01:07:00,VALID,916.046,VALID,0,VALID,100,VALID,0.0169808,VALID,19.7678,VALID,119,VALID,0.90997,
2005-06-09, 01:08:00,VALID,916.033,VALID,0,VALID,100,VALID,-0.0679233,VALID,19.7755,VALID,128,VALID,1.64501,
2005-06-09, 01:09:00,VALID,916.031,VALID,0,VALID,100,VALID,-0.0679233,VALID,19.8118,VALID,127,VALID,1.76086,
2005-06-09, 01:10:00,VALID,916.026,VALID,0,VALID,100,VALID,-0.0679233,VALID,19.8242,VALID,121,VALID,1.50677,
2005-06-09, 01:11:00,VALID,916.018,VALID,0,VALID,100,VALID,-0.0849042,VALID,19.8398,VALID,128,VALID,1.09013,
2005-06-09, 01:12:00,VALID,916.012,VALID,0,VALID,100,VALID,-0.0339617,VALID,19.8527,VALID,134,VALID,1.75055,
2005-06-09, 01:13:00,VALID,916.014,VALID,0,VALID,100,VALID,-0.101885,VALID,19.8855,VALID,123,VALID,1.38337,
2005-06-09, 01:14:00,VALID,915.997,VALID,0,VALID,100,VALID,-0.0849042,VALID,19.9017,VALID,126,VALID,1.48457,
2005-06-09, 01:15:00,VALID,915.983,VALID,0,VALID,100,VALID,-0.101885,VALID,19.9049,VALID,130,VALID,1.57608,
2005-06-09, 01:16:00,VALID,915.969,VALID,0,VALID,100,VALID,-0.101885,VALID,19.9116,VALID,119,VALID,1.42336,
2005-06-09, 01:17:00,VALID,915.949,VALID,0,VALID,100,VALID,-0.0849042,VALID,19.9275,VALID,129,VALID,1.17242,
2005-06-09, 01:18:00,VALID,915.938,VALID,0,VALID,100,VALID,-0.0849042,VALID,19.9404,VALID,113,VALID,0.981055,
2005-06-09, 01:19:00,VALID,915.908,VALID,0,VALID,100,VALID,-0.0849042,VALID,19.9342,VALID,121,VALID,1.38299,
2005-06-09, 01:20:00,VALID,915.889,VALID,0,VALID,100,VALID,-0.101885,VALID,19.9337,VALID,119,VALID,1.11124,
2005-06-09, 01:21:00,VALID,915.867,VALID,0,VALID,100,VALID,-0.101885,VALID,19.9504,VALID,124,VALID,1.23921,
2005-06-09, 01:22:00,VALID,915.839,VALID,0,VALID,100,VALID,-0.0679233,VALID,19.9566,VALID,116,VALID,1.1276,
2005-06-09, 01:23:00,VALID,915.835,VALID,0,VALID,100,VALID,-0.0849042,VALID,19.9665,VALID,128,VALID,1.3363,
2005-06-09, 01:24:00,VALID,915.837,VALID,0,VALID,100,VALID,-0.0679233,VALID,19.9794,VALID,124,VALID,1.2413,
2005-06-09, 01:25:00,VALID,915.827,VALID,0,VALID,100,VALID,-0.0849042,VALID,19.9792,VALID,119,VALID,0.892671,
2005-06-09, 01:26:00,VALID,915.823,VALID,0,VALID,100,VALID,-0.101885,VALID,19.9591,VALID,107,VALID,0.615513,
2005-06-09, 01:27:00,VALID,915.836,VALID,0,VALID,100,VALID,-0.0849042,VALID,19.9558,VALID,121,VALID,0.74721,
2005-06-09, 01:28:00,VALID,915.848,VALID,0,VALID,100,VALID,-0.101885,VALID,19.9596,VALID,112,VALID,0.775112,
2005-06-09, 01:29:00,VALID,915.857,VALID,0,VALID,100,VALID,-0.0679233,VALID,19.9531,VALID,98,VALID,0.890831,
2005-06-09, 01:30:00,VALID,915.856,VALID,0,VALID,100,VALID,-0.0679233,VALID,19.9437,VALID,108,VALID,1.12407,
2005-06-09, 01:31:00,VALID,915.863,VALID,0,VALID,100,VALID,-0.0849042,VALID,19.9598,VALID,107,VALID,0.798437,
2005-06-09, 01:32:00,VALID,915.867,VALID,0,VALID,100,VALID,-0.101885,VALID,19.9499,VALID,128,VALID,0.691584,
2005-06-09, 01:33:00,VALID,915.869,VALID,0,VALID,100,VALID,-0.0849042,VALID,19.9432,VALID,134,VALID,0.786044,
2005-06-09, 01:34:00,VALID,915.866,VALID,0,VALID,100,VALID,-0.101885,VALID,19.9409,VALID,119,VALID,0.837891,
2005-06-09, 01:35:00,VALID,915.881,VALID,0,VALID,100,VALID,-0.101885,VALID,19.925,VALID,78,VALID,0.433036,
2005-06-09, 01:36:00,VALID,915.876,VALID,0,VALID,100,VALID,-0.0849042,VALID,19.9012,VALID,114,VALID,0.924964,
2005-06-09, 01:37:00,VALID,915.875,VALID,0,VALID,100,VALID,-0.101885,VALID,19.9084,VALID,110,VALID,0.441797,
2005-06-09, 01:38:00,VALID,915.863,VALID,0,VALID,100,VALID,-0.0679233,VALID,19.9057,VALID,109,VALID,0.562145,
2005-06-09, 01:39:00,VALID,915.834,VALID,0,VALID,100,VALID,-0.0849042,VALID,19.8823,VALID,123,VALID,0.543155,
2005-06-09, 01:40:00,VALID,915.81,VALID,0,VALID,100,VALID,-0.0679233,VALID,19.8761,VALID,119,VALID,0.515988,
2005-06-09, 01:41:00,VALID,915.783,VALID,0,VALID,100,VALID,-0.101885,VALID,19.8761,VALID,120,VALID,0.454427,
2005-06-09, 01:42:00,VALID,915.755,VALID,0,VALID,100,VALID,-0.0509425,VALID,19.8532,VALID,96,VALID,0.494141,
2005-06-09, 01:43:00,VALID,915.737,VALID,0,VALID,100,VALID,-0.101885,VALID,19.8508,VALID,85,VALID,0.621951,
2005-06-09, 01:44:00,VALID,915.745,VALID,0,VALID,100,VALID,-0.0849042,VALID,19.8371,VALID,99,VALID,0.814317,
2005-06-09, 01:45:00,VALID,915.73,VALID,0,VALID,100,VALID,-0.101885,VALID,19.8441,VALID,99,VALID,0.637091,
2005-06-09, 01:46:00,VALID,915.723,VALID,0,VALID,100,VALID,-0.101885,VALID,19.8277,VALID,99,VALID,0.70476,
2005-06-09, 01:47:00,VALID,915.719,VALID,0,VALID,100,VALID,-0.0849042,VALID,19.8277,VALID,102,VALID,0.928052,
2005-06-09, 01:48:00,VALID,915.705,VALID,0,VALID,99.9415,VALID,-0.0679233,VALID,19.8244,VALID,104,VALID,1.04948,
2005-06-09, 01:49:00,VALID,915.693,VALID,0,VALID,99.7002,VALID,-0.0849042,VALID,19.8306,VALID,101,VALID,0.871951,
2005-06-09, 01:50:00,VALID,915.686,VALID,0,VALID,99.2932,VALID,-0.101885,VALID,19.8311,VALID,67,VALID,0.830357,
2005-06-09, 01:51:00,VALID,915.708,VALID,0,VALID,98.8609,VALID,-0.0679233,VALID,19.7822,VALID,49,VALID,0.798735,
2005-06-09, 01:52:00,VALID,915.717,VALID,0,VALID,98.7617,VALID,-0.0679233,VALID,19.7174,VALID,57,VALID,0.817336,
2005-06-09, 01:53:00,VALID,915.73,VALID,0,VALID,98.8533,VALID,0.0339617,VALID,19.6774,VALID,63,VALID,0.820313,
2005-06-09, 01:54:00,VALID,915.751,VALID,0,VALID,98.9626,VALID,0.0339617,VALID,19.6324,VALID,60,VALID,0.969141,
2005-06-09, 01:55:00,VALID,915.755,VALID,0,VALID,99.1635,VALID,0.0339617,VALID,19.5969,VALID,58,VALID,1.03307,
2005-06-09, 01:56:00,VALID,915.76,VALID,0,VALID,99.5552,VALID,0.0339617,VALID,19.6001,VALID,58,VALID,0.976372,
2005-06-09, 01:57:00,VALID,915.78,VALID,0,VALID,99.5577,VALID,0.0169808,VALID,19.5845,VALID,59,VALID,0.876215,
2005-06-09, 01:58:00,VALID,915.808,VALID,0,VALID,99.7714,VALID,0,VALID,19.5649,VALID,74,VALID,0.938889,
2005-06-09, 01:59:00,VALID,915.799,VALID,0,VALID,99.9964,VALID,0,VALID,19.5612,VALID,87,VALID,1.03385,
2005-06-09, 02:00:00,VALID,915.807,VALID,0,VALID,100,VALID,0.0169808,VALID,19.578,VALID,91,VALID,0.959961,
2005-06-09, 02:01:00,VALID,915.811,VALID,0,VALID,100,VALID,0.0169808,VALID,19.5681,VALID,97,VALID,0.879464,
2005-06-09, 02:02:00,VALID,915.799,VALID,0,VALID,100,VALID,0.0169808,VALID,19.5644,VALID,106,VALID,1.02954,
2005-06-09, 02:03:00,VALID,915.802,VALID,0,VALID,100,VALID,0,VALID,19.5654,VALID,109,VALID,0.998512,
2005-06-09, 02:04:00,VALID,915.799,VALID,0,VALID,100,VALID,0.0169808,VALID,19.5358,VALID,118,VALID,0.693892,
2005-06-09, 02:05:00,VALID,915.794,VALID,0,VALID,100,VALID,0.0169808,VALID,19.5231,VALID,118,VALID,0.491997,
2005-06-09, 02:06:00,VALID,915.806,VALID,0,VALID,100,VALID,0.0169808,VALID,19.5231,VALID,110,VALID,0.526414,
2005-06-09, 02:07:00,VALID,915.808,VALID,0,VALID,100,VALID,0,VALID,19.5363,VALID,118,VALID,0.90625,
2005-06-09, 02:08:00,VALID,915.822,VALID,0,VALID,100,VALID,0.0169808,VALID,19.5458,VALID,126,VALID,0.800781,
2005-06-09, 02:09:00,VALID,915.84,VALID,0,VALID,100,VALID,0.0169808,VALID,19.549,VALID,127,VALID,0.636265,
2005-06-09, 02:10:00,VALID,915.849,VALID,0,VALID,100,VALID,-0.0169808,VALID,19.5587,VALID,122,VALID,0.756098,
2005-06-09, 02:11:00,VALID,915.85,VALID,0,VALID,100,VALID,0,VALID,19.5619,VALID,125,VALID,0.664249,
2005-06-09, 02:12:00,VALID,915.841,VALID,0,VALID,100,VALID,0,VALID,19.5589,VALID,125,VALID,0.594494,
2005-06-09, 02:13:00,VALID,915.843,VALID,0,VALID,100,VALID,0.0169808,VALID,19.5619,VALID,125,VALID,0.449609,
2005-06-09, 02:14:00,VALID,915.836,VALID,0,VALID,100,VALID,0.0339617,VALID,19.542,VALID,124,VALID,0.525073,
2005-06-09, 02:15:00,VALID,915.841,VALID,0,VALID,100,VALID,0.0509425,VALID,19.5388,VALID,119,VALID,0.368056,
2005-06-09, 02:16:00,VALID,915.834,VALID,0,VALID,100,VALID,-0.0169808,VALID,19.5167,VALID,119,VALID,0.178622,
2005-06-09, 02:17:00,VALID,915.832,VALID,0,VALID,100,VALID,0,VALID,19.4558,VALID,115,VALID,0.38978,
2005-06-09, 02:18:00,VALID,915.836,VALID,0,VALID,100,VALID,0,VALID,19.4044,VALID,112,VALID,0.542791,
2005-06-09, 02:19:00,VALID,915.824,VALID,0,VALID,100,VALID,0,VALID,19.4101,VALID,121,VALID,0.727764,
2005-06-09, 02:20:00,VALID,915.829,VALID,0,VALID,100,VALID,0.0169808,VALID,19.4327,VALID,133,VALID,0.905342,
2005-06-09, 02:21:00,VALID,915.831,VALID,0,VALID,100,VALID,0,VALID,19.4556,VALID,128,VALID,0.763445,
2005-06-09, 02:22:00,VALID,915.824,VALID,0,VALID,100,VALID,0,VALID,19.4844,VALID,114,VALID,0.547763,
2005-06-09, 02:23:00,VALID,915.82,VALID,0,VALID,100,VALID,0.0849042,VALID,19.477,VALID,104,VALID,0.629972,
2005-06-09, 02:24:00,VALID,915.821,VALID,0,VALID,100,VALID,0.0509425,VALID,19.4419,VALID,90,VALID,0.731898,
2005-06-09, 02:25:00,VALID,915.82,VALID,0,VALID,100,VALID,0.0679233,VALID,19.4119,VALID,88,VALID,0.698661,
2005-06-09, 02:26:00,VALID,915.813,VALID,0,VALID,100,VALID,0.101885,VALID,19.3963,VALID,87,VALID,0.847751,
2005-06-09, 02:27:00,VALID,915.826,VALID,0,VALID,100,VALID,0.101885,VALID,19.4092,VALID,84,VALID,0.761446,
2005-06-09, 02:28:00,VALID,915.821,VALID,0,VALID,100,VALID,0.101885,VALID,19.399,VALID,91,VALID,0.931141,
2005-06-09, 02:29:00,VALID,915.808,VALID,0,VALID,100,VALID,0.101885,VALID,19.432,VALID,98,VALID,0.980374,
2005-06-09, 02:30:00,VALID,915.793,VALID,0,VALID,100,VALID,0.101885,VALID,19.4218,VALID,96,VALID,0.918241,
2005-06-09, 02:31:00,VALID,915.772,VALID,0,VALID,100,VALID,0.0679233,VALID,19.4189,VALID,99,VALID,0.868096,
2005-06-09, 02:32:00,VALID,915.772,VALID,0,VALID,100,VALID,0.0849042,VALID,19.3903,VALID,91,VALID,0.804874,
2005-06-09, 02:33:00,VALID,915.751,VALID,0,VALID,100,VALID,0.0849042,VALID,19.3806,VALID,84,VALID,0.922433,
2005-06-09, 02:34:00,VALID,915.747,VALID,0,VALID,100,VALID,0.0849042,VALID,19.3478,VALID,89,VALID,0.909108,
2005-06-09, 02:35:00,VALID,915.739,VALID,0,VALID,100,VALID,0.0679233,VALID,19.3352,VALID,104,VALID,0.868459,
2005-06-09, 02:36:00,VALID,915.73,VALID,0,VALID,100,VALID,0.0849042,VALID,19.3356,VALID,105,VALID,0.947674,
2005-06-09, 02:37:00,VALID,915.726,VALID,0,VALID,100,VALID,0.0679233,VALID,19.3386,VALID,107,VALID,0.75279,
2005-06-09, 02:38:00,VALID,915.722,VALID,0,VALID,100,VALID,-0.0339617,VALID,19.3465,VALID,107,VALID,0.892014,
2005-06-09, 02:39:00,VALID,915.698,VALID,0,VALID,100,VALID,0,VALID,19.3431,VALID,107,VALID,0.887005,
2005-06-09, 02:40:00,VALID,915.661,VALID,0,VALID,100,VALID,-0.0339617,VALID,19.3428,VALID,88,VALID,0.923828,
2005-06-09, 02:41:00,VALID,915.632,VALID,0,VALID,100,VALID,-0.0169808,VALID,19.3394,VALID,63,VALID,1.05176,
2005-06-09, 02:42:00,VALID,915.633,VALID,0,VALID,100,VALID,-0.0339617,VALID,19.3078,VALID,64,VALID,0.931818,
2005-06-09, 02:43:00,VALID,915.608,VALID,0,VALID,100,VALID,-0.0509425,VALID,19.2631,VALID,77,VALID,0.730664,
2005-06-09, 02:44:00,VALID,915.61,VALID,0,VALID,100,VALID,-0.0169808,VALID,19.201,VALID,97,VALID,0.897135,
2005-06-09, 02:45:00,VALID,915.603,VALID,0,VALID,100,VALID,-0.0169808,VALID,19.1856,VALID,106,VALID,1.19741,
2005-06-09, 02:46:00,VALID,915.584,VALID,0,VALID,100,VALID,-0.0679233,VALID,19.1916,VALID,111,VALID,1.26667,
2005-06-09, 02:47:00,VALID,915.584,VALID,0,VALID,100,VALID,-0.0509425,VALID,19.2109,VALID,106,VALID,1.33288,
2005-06-09, 02:48:00,VALID,915.591,VALID,0,VALID,100,VALID,-0.0339617,VALID,19.2271,VALID,113,VALID,1.41479,
2005-06-09, 02:49:00,VALID,915.583,VALID,0,VALID,100,VALID,-0.0339617,VALID,19.2405,VALID,115,VALID,0.995561,
2005-06-09, 02:50:00,VALID,915.583,VALID,0,VALID,100,VALID,0,VALID,19.2137,VALID,111,VALID,1.0814,
2005-06-09, 02:51:00,VALID,915.562,VALID,0,VALID,100,VALID,-0.0169808,VALID,19.2013,VALID,99,VALID,0.864826,
2005-06-09, 02:52:00,VALID,915.554,VALID,0,VALID,100,VALID,-0.0169808,VALID,19.1819,VALID,98,VALID,1.12188,
2005-06-09, 02:53:00,VALID,915.539,VALID,0,VALID,100,VALID,0,VALID,19.1685,VALID,108,VALID,1.08802,
2005-06-09, 02:54:00,VALID,915.524,VALID,0,VALID,100,VALID,-0.0339617,VALID,19.1583,VALID,104,VALID,1.25057,
2005-06-09, 02:55:00,VALID,915.515,VALID,0,VALID,100,VALID,0,VALID,19.1553,VALID,84,VALID,0.833757,
2005-06-09, 02:56:00,VALID,915.507,VALID,0,VALID,100,VALID,-0.0339617,VALID,19.1362,VALID,110,VALID,1.10118,
2005-06-09, 02:57:00,VALID,915.504,VALID,0,VALID,100,VALID,-0.0339617,VALID,19.1399,VALID,112,VALID,1.20153,
2005-06-09, 02:58:00,VALID,915.504,VALID,0,VALID,100,VALID,0,VALID,19.1494,VALID,106,VALID,1.26781,
2005-06-09, 02:59:00,VALID,915.509,VALID,0,VALID,100,VALID,-0.0169808,VALID,19.1754,VALID,96,VALID,1.04488,
2005-06-09, 03:00:00,VALID,915.513,VALID,0,VALID,100,VALID,0,VALID,19.1623,VALID,110,VALID,0.744731,
2005-06-09, 03:01:00,VALID,915.523,VALID,0,VALID,100,VALID,-0.0509425,VALID,19.1558,VALID,106,VALID,0.845954,
2005-06-09, 03:02:00,VALID,915.517,VALID,0,VALID,100,VALID,0,VALID,19.1434,VALID,101,VALID,0.998884,
2005-06-09, 03:03:00,VALID,915.518,VALID,0,VALID,100,VALID,-0.0509425,VALID,19.1501,VALID,106,VALID,0.911086,
2005-06-09, 03:04:00,VALID,915.513,VALID,0,VALID,100,VALID,-0.0339617,VALID,19.1362,VALID,104,VALID,1.12926,
2005-06-09, 03:05:00,VALID,915.518,VALID,0,VALID,100,VALID,0.0169808,VALID,19.1402,VALID,102,VALID,1.02045,
2005-06-09, 03:06:00,VALID,915.52,VALID,0,VALID,100,VALID,-0.0169808,VALID,19.1469,VALID,99,VALID,0.891226,
2005-06-09, 03:07:00,VALID,915.518,VALID,0,VALID,100,VALID,0,VALID,19.1332,VALID,96,VALID,1.23383,
2005-06-09, 03:08:00,VALID,915.517,VALID,0,VALID,100,VALID,-0.0339617,VALID,19.133,VALID,96,VALID,1.1449,
2005-06-09, 03:09:00,VALID,915.509,VALID,0,VALID,100,VALID,-0.0169808,VALID,19.1399,VALID,97,VALID,0.986192,
2005-06-09, 03:10:00,VALID,915.5,VALID,0,VALID,100,VALID,0,VALID,19.1362,VALID,111,VALID,0.864901,
2005-06-09, 03:11:00,VALID,915.494,VALID,0,VALID,100,VALID,-0.0169808,VALID,19.1399,VALID,119,VALID,0.815952,
2005-06-09, 03:12:00,VALID,915.49,VALID,0,VALID,100,VALID,0,VALID,19.1268,VALID,109,VALID,0.997113,
2005-06-09, 03:13:00,VALID,915.475,VALID,0,VALID,100,VALID,-0.0169808,VALID,19.1372,VALID,111,VALID,0.981608,
2005-06-09, 03:14:00,VALID,915.468,VALID,0,VALID,100,VALID,-0.0679233,VALID,19.1173,VALID,112,VALID,0.88519,
2005-06-09, 03:15:00,VALID,915.456,VALID,0,VALID,100,VALID,-0.0339617,VALID,19.1141,VALID,103,VALID,0.721475,
2005-06-09, 03:16:00,VALID,915.447,VALID,0,VALID,100,VALID,-0.0509425,VALID,19.1176,VALID,104,VALID,1.29855,
2005-06-09, 03:17:00,VALID,915.438,VALID,0,VALID,100,VALID,-0.0169808,VALID,19.124,VALID,107,VALID,1.12853,
2005-06-09, 03:18:00,VALID,915.442,VALID,0,VALID,100,VALID,-0.0169808,VALID,19.1268,VALID,109,VALID,1.11158,
2005-06-09, 03:19:00,VALID,915.432,VALID,0,VALID,100,VALID,-0.0169808,VALID,19.1466,VALID,106,VALID,0.928622,
2005-06-09, 03:20:00,VALID,915.421,VALID,0,VALID,100,VALID,0,VALID,19.1406,VALID,97,VALID,1.05487,
2005-06-09, 03:21:00,VALID,915.421,VALID,0,VALID,100,VALID,0,VALID,19.1238,VALID,98,VALID,0.820871,
2005-06-09, 03:22:00,VALID,915.427,VALID,0,VALID,100,VALID,0,VALID,19.1044,VALID,101,VALID,0.919969,
2005-06-09, 03:23:00,VALID,915.422,VALID,0,VALID,100,VALID,0.0169808,VALID,19.0875,VALID,96,VALID,0.891183,
2005-06-09, 03:24:00,VALID,915.425,VALID,0,VALID,100,VALID,0.0169808,VALID,19.0746,VALID,88,VALID,0.949505,
2005-06-09, 03:25:00,VALID,915.43,VALID,0,VALID,100,VALID,-0.0169808,VALID,19.0331,VALID,89,VALID,0.779492,
2005-06-09, 03:26:00,VALID,915.438,VALID,0,VALID,100,VALID,-0.0849042,VALID,19.0087,VALID,92,VALID,0.960756,
2005-06-09, 03:27:00,VALID,915.44,VALID,0,VALID,100,VALID,-0.101885,VALID,19.005,VALID,95,VALID,0.998728,
2005-06-09, 03:28:00,VALID,915.443,VALID,0,VALID,100,VALID,-0.101885,VALID,19.009,VALID,100,VALID,0.779948,
2005-06-09, 03:29:00,VALID,915.437,VALID,0,VALID,100,VALID,-0.101885,VALID,19.0055,VALID,111,VALID,1.05254,
2005-06-09, 03:30:00,VALID,915.445,VALID,0,VALID,100,VALID,-0.101885,VALID,19.0313,VALID,120,VALID,0.906795,
2005-06-09, 03:31:00,VALID,915.436,VALID,0,VALID,100,VALID,-0.0849042,VALID,19.0472,VALID,108,VALID,1.10956,
2005-06-09, 03:32:00,VALID,915.43,VALID,0,VALID,100,VALID,-0.101885,VALID,19.0572,VALID,123,VALID,0.967969,
2005-06-09, 03:33:00,VALID,915.438,VALID,0,VALID,100,VALID,-0.101885,VALID,19.0765,VALID,122,VALID,1.14787,
2005-06-09, 03:34:00,VALID,915.43,VALID,0,VALID,100,VALID,-0.101885,VALID,19.1155,VALID,121,VALID,1.32413,
2005-06-09, 03:35:00,VALID,915.429,VALID,0,VALID,100,VALID,-0.101885,VALID,19.1282,VALID,130,VALID,1.33352,
2005-06-09, 03:36:00,VALID,915.427,VALID,0,VALID,100,VALID,-0.118866,VALID,19.1637,VALID,128,VALID,1.30669,
2005-06-09, 03:37:00,VALID,915.434,VALID,0,VALID,100,VALID,-0.0849042,VALID,19.196,VALID,124,VALID,1.23029,